This demonstration page uses our WeatherBlox Daily Observations layout. Learn more.

Left ArrowRight Arrow

Hourly Observations for July 7, 2021

Temp ( °F °C ) Dew Point ( °F °C ) Humidity (%) Winds ( mph kmh ) Pressure ( in mb ) Visibility ( mi km ) Precip ( " mm )
12:53 am 00:53 Clear 76 24.4 66 18.9 72 72 E 7 11 29.90 1013 10 16 0.00 0.00
1:53 am 01:53 Clear 74 23.3 66 18.9 76 76 E 8 13 29.89 1012 10 16 0.00 0.00
2:53 am 02:53 Mostly Clear 73 22.8 66 18.9 79 79 ENE 6 9 29.89 1012 10 16 0.00 0.00
3:53 am 03:53 Clear 72 22.2 67 19.4 84 84 ENE 6 9 29.88 1012 10 16 0.00 0.00
4:53 am 04:53 Cloudy 72 22.2 67 19.4 84 84 ENE 6 9 29.88 1012 10 16 0.00 0.00
5:53 am 05:53 Clear 71 21.7 67 19.4 87 87 NE 5 7 29.88 1012 10 16 0.00 0.00
6:53 am 06:53 Mostly Cloudy 71 21.7 67 19.4 87 87 NNE 6 9 29.89 1012 10 16 0.00 0.00
7:53 am 07:53 Mostly Sunny 71 21.7 67 19.4 87 87 ENE 7 11 29.91 1013 10 16 0.00 0.00
8:53 am 08:53 Partly Cloudy 75 23.9 67 19.4 76 76 E 7 11 29.93 1013 10 16 0.00 0.00
9:53 am 09:53 Partly Cloudy 77 25 67 19.4 71 71 E 7 11 29.93 1014 10 16 0.00 0.00
10:53 am 10:53 Mostly Cloudy 79 26.1 66 18.9 65 65 E 5 7 29.93 1014 10 16 0.00 0.00
11:53 am 11:53 Mostly Sunny 82 27.8 65 18.3 56 56 ENE 8 13 29.93 1014 10 16 0.00 0.00
12:53 pm 12:53 Mostly Sunny 85 29.4 63 17.2 48 48 ENE 10 17 29.91 1013 10 16 0.00 0.00
1:53 pm 13:53 Mostly Cloudy 86 30 63 17.2 46 46 ENE 9 15 29.89 1012 10 16 0.00 0.00
2:53 pm 14:53 Partly Cloudy 88 31.1 62 16.7 42 42 ESE 10 17 29.87 1012 10 16 0.00 0.00
3:53 pm 15:53 Sunny 89 31.7 60 15.6 38 38 ESE 12 19 29.86 1011 10 16 0.00 0.00
4:53 pm 16:53 Mostly Cloudy 89 31.7 61 16.1 39 39 E 8 13 29.84 1011 10 16 0.00 0.00
5:53 pm 17:53 Mostly Cloudy 88 31.1 60 15.6 39 39 E 12 19 29.83 1010 10 16 0.00 0.00
6:53 pm 18:53 Mostly Sunny 87 30.6 62 16.7 43 43 ENE 14 22 29.83 1010 10 16 0.00 0.00
7:53 pm 19:53 Sunny 86 30 61 16.1 43 43 E 14 22 29.83 1010 10 16 0.00 0.00
8:53 pm 20:53 Sunny 83 28.3 61 16.1 48 48 E 7 11 29.83 1010 10 16 0.00 0.00
9:53 pm 21:53 Clear 80 26.7 60 15.6 51 51 E 7 11 29.85 1011 10 16 0.00 0.00
10:53 pm 22:53 Clear 78 25.6 60 15.6 54 54 ENE 7 11 29.88 1012 10 16 0.00 0.00
11:53 pm 23:53 Clear 76 24.4 62 16.7 62 62 ENE 8 13 29.89 1012 10 16 0.00 0.00

Powered by AerisWeather